Wind_Speed
13 13 13 13 13 12 12 11 10 9 9 9 9 9 9 9 10 10 10 10 10 10 10 9 9 8 7 7 7 8 8 8 8 9 11 14 15 16 20 23 23 22 21 21 21 21 22 23 23 22 20 19 17 15 14 12 9 7 7 6 5 3 4 4 3 2 5 5 6 6 8 8 8 9 9 8 8 8 10 10 10 11 12 14 14 17 18 17
13 13 14 13 13 13 13 12 11 10 10 9 9 9 9 9 9 10 10 10 10 10 10 10 10 9 8 8 7 8 9 10 10 12 13 14 14 13 17 21 22 22 21 21 19 18 19 21 23 23 22 21 18 17 15 12 10 9 8 7 5 4 5 7 6 5 6 5 6 8 8 9 7 8 8 7 7 6 7 8 10 12 13 14 14 16 18 19
14 14 14 14 14 13 13 12 12 11 11 10 10 9 9 9 9 9 9 10 10 10 10 10 10 10 9 9 8 8 9 11 12 13 14 14 13 13 14 18 21 21 20 19 17 16 16 17 20 21 22 21 19 18 15 13 12 10 9 7 6 7 6 7 7 6 8 8 7 8 9 9 9 9 9 8 6 4 4 5 8 11 11 13 14 15 18 20
15 15 15 15 15 14 14 13 12 12 12 11 11 11 10 10 10 10 9 10 10 9 10 10 10 10 10 10 9 9 10 11 13 14 14 14 13 12 12 15 18 20 20 20 19 18 17 18 19 20 21 20 20 19 16 15 11 10 10 7 7 9 7 7 8 6 9 9 8 8 9 9 9 9 9 9 7 5 5 4 6 10 9 11 13 14 17 20
16 15 15 15 15 15 14 14 14 13 13 13 13 12 12 11 11 11 10 10 10 9 9 9 10 10 11 11 10 10 9 10 13 14 14 15 14 13 11 12 16 20 22 21 21 21 20 20 21 22 22 20 21 20 18 17 13 11 9 7 10 11 7 9 10 7 7 9 9 8 8 9 9 9 9 10 8 5 7 6 5 10 9 9 11 12 16 19
15 15 15 15 15 15 15 14 14 14 15 14 14 14 13 12 11 11 11 11 11 10 9 9 9 9 10 11 12 12 11 10 11 12 14 16 16 14 11 12 15 18 22 23 22 22 21 21 23 24 24 22 23 21 19 19 16 14 9 7 11 13 11 10 11 9 7 8 9 7 7 9 8 8 9 11 9 5 9 8 4 9 11 10 10 10 14 18
15 15 15 15 15 15 15 14 14 15 15 15 14 14 14 13 12 12 11 11 11 10 10 9 9 9 9 10 12 12 14 14 12 12 13 16 16 15 12 13 15 17 21 23 24 23 22 22 22 23 23 24 24 22 21 21 18 16 11 9 12 14 14 12 10 10 10 9 9 8 7 8 9 8 9 12 11 7 10 9 5 8 11 12 11 10 12 16
16 16 15 15 15 15 15 14 14 15 15 15 15 14 14 13 12 12 11 11 11 11 10 10 9 9 9 9 10 12 15 16 15 14 14 15 16 15 13 14 16 16 19 22 23 22 21 21 20 21 22 23 23 23 24 22 19 19 15 11 13 16 15 13 12 12 12 11 11 10 8 8 10 10 9 11 12 10 10 8 6 6 8 11 12 12 13 15
16 16 15 15 15 15 15 15 15 15 15 15 15 15 14 13 13 12 12 12 11 11 11 10 10 9 9 9 9 12 15 17 17 16 16 16 16 15 13 14 16 16 18 21 23 24 22 20 17 18 20 21 24 26 26 21 16 19 18 14 15 17 16 15 13 12 11 11 11 10 8 8 10 13 11 11 13 13 11 8 6 6 6 9 11 12 14 15
16 16 15 15 15 15 15 15 15 15 15 14 15 15 14 13 13 12 12 12 12 12 11 11 10 10 10 9 8 11 14 18 19 17 17 18 17 16 14 13 15 16 17 19 24 25 23 18 15 16 18 20 24 26 26 22 16 19 20 18 18 18 19 19 16 14 12 11 13 11 8 8 11 14 11 12 14 13 11 9 7 7 6 7 10 13 15 15
17 16 16 16 16 16 15 15 15 15 14 14 14 14 14 14 13 13 13 12 12 12 12 11 11 11 11 9 9 11 13 17 19 19 19 19 19 18 16 15 14 15 17 19 22 23 21 18 16 17 16 18 22 23 25 26 22 22 22 18 18 19 21 22 21 17 14 12 12 12 9 9 13 15 11 11 15 14 12 11 8 7 6 6 8 12 15 17
17 17 17 17 16 16 16 15 15 14 14 14 14 14 14 14 14 13 13 12 12 12 12 12 12 12 12 11 10 11 12 15 18 20 21 20 20 20 19 18 16 16 18 19 21 21 22 21 19 16 14 17 18 17 21 27 27 25 23 18 14 16 20 23 22 17 14 13 12 13 11 11 15 15 13 13 15 13 12 12 10 9 7 7 8 12 16 18
17 17 17 17 16 16 16 15 15 15 14 14 13 14 14 14 14 14 13 12 12 12 11 11 12 11 12 12 11 11 12 14 16 19 21 21 21 21 21 20 19 18 18 20 21 22 24 23 21 16 16 16 11 14 19 22 26 25 24 20 15 15 19 21 22 19 16 15 15 13 11 12 15 14 14 15 15 13 13 13 12 11 9 8 8 11 15 18
19 18 18 17 17 16 16 15 15 15 15 14 13 13 13 14 14 14 13 12 11 11 10 10 11 10 11 12 11 10 11 13 14 17 20 22 22 22 22 21 20 19 19 21 24 26 26 24 21 19 21 18 11 16 19 14 20 23 20 20 18 16 17 18 20 20 19 18 17 14 12 13 13 14 16 15 13 12 12 12 12 12 11 10 9 10 14 17
21 20 20 19 18 18 17 17 16 16 16 15 14 13 13 13 14 13 13 11 10 10 9 9 9 9 9 10 10 10 10 12 13 15 18 21 22 22 22 22 21 19 19 22 25 27 27 24 24 23 22 21 17 16 14 12 15 18 18 19 19 19 15 15 19 21 21 18 17 16 14 11 10 13 17 15 12 11 10 10 11 12 12 11 10 10 12 15
22 22 22 21 20 19 19 19 18 17 18 17 16 14 13 14 13 13 12 11 9 8 7 7 6 6 7 7 8 8 8 10 12 14 17 19 22 22 21 22 21 20 20 23 26 27 27 25 26 25 20 19 21 16 12 14 16 17 20 19 19 22 19 16 18 21 22 17 17 19 16 10 9 14 17 15 12 11 11 10 10 11 13 13 12 11 12 14
23 23 23 23 22 21 21 20 19 18 18 18 18 16 15 14 14 12 10 9 7 6 5 4 4 6 6 6 6 7 8 8 10 12 15 18 21 22 21 21 21 20 21 24 26 28 29 28 26 26 23 19 19 17 15 18 20 19 21 21 19 21 22 19 17 20 23 19 17 20 19 13 10 14 17 16 13 13 13 12 10 11 12 14 15 14 13 15
23 23 23 23 23 22 22 21 20 18 18 18 18 16 16 14 13 11 8 6 5 5 4 2 3 5 4 6 6 7 9 10 9 10 12 16 19 21 21 21 20 20 21 24 27 29 30 28 25 23 22 23 22 22 23 20 20 21 22 23 21 19 22 22 17 17 23 23 19 20 21 18 14 14 16 15 13 13 13 13 11 11 12 14 15 16 15 15
23 22 23 23 23 22 22 21 20 19 18 18 17 16 16 14 13 12 7 5 4 4 4 4 4 3 6 9 9 9 9 9 9 8 9 13 17 20 20 20 20 20 21 25 28 30 30 26 24 25 27 30 29 28 27 17 13 19 22 22 22 20 22 23 18 14 18 23 23 22 22 21 18 17 17 17 14 12 12 14 14 13 13 14 15 16 16 16
22 22 22 22 22 21 20 20 19 18 18 17 16 15 14 13 12 10 7 5 6 6 7 7 7 7 8 10 10 10 9 8 8 7 7 9 14 18 19 20 19 19 21 25 27 30 32 28 28 34 32 29 28 27 25 17 11 13 17 20 21 20 20 23 20 15 15 20 23 24 22 21 20 19 19 21 18 15 15 16 17 15 14 15 15 15 16 16
21 22 22 22 21 20 19 18 17 17 17 15 14 13 12 11 8 7 7 8 9 9 10 9 8 8 8 8 9 9 9 8 9 8 5 6 12 15 18 20 19 20 22 22 23 27 31 30 33 37 30 22 22 24 24 21 16 12 13 16 19 20 19 20 20 17 16 19 20 21 23 22 22 20 19 21 22 19 19 18 18 15 14 15 15 15 16 16
21 22 22 20 20 19 18 18 16 16 15 14 13 12 12 12 9 9 9 9 10 9 10 10 9 8 7 6 7 7 6 6 8 9 6 6 10 12 15 19 19 19 22 22 20 23 28 33 36 32 25 21 19 21 23 23 20 16 15 15 17 19 19 18 18 16 16 19 20 19 21 23 23 23 20 19 23 22 20 20 18 17 16 15 15 15 17 17
21 21 21 19 19 19 18 18 16 16 15 14 13 12 12 11 10 11 10 9 10 10 9 9 7 7 6 5 5 5 5 4 6 9 7 6 10 15 17 18 18 16 20 24 23 24 25 30 34 28 22 23 20 19 22 22 22 21 19 18 17 17 18 20 19 18 17 18 20 18 19 22 22 24 23 20 22 23 21 21 20 20 18 16 15 16 17 18
20 20 20 19 19 20 19 19 18 17 16 14 13 12 12 11 10 10 9 9 11 11 10 8 6 6 6 6 5 5 5 5 7 8 7 7 9 14 16 16 17 17 19 24 25 26 23 20 27 26 21 23 23 21 22 22 22 23 23 23 19 16 18 19 14 14 17 19 21 20 19 23 23 24 25 23 23 23 22 23 23 23 21 19 18 18 18 18
20 20 20 19 20 20 20 19 18 17 16 15 14 13 11 10 10 9 9 7 8 11 9 7 6 5 5 4 5 7 7 7 8 8 8 9 8 9 13 16 18 18 18 21 24 27 25 20 21 23 22 25 25 23 24 23 21 22 24 26 23 17 15 18 13 10 15 19 23 24 19 20 24 27 27 24 23 25 24 25 26 25 24 23 21 19 18 18
21 21 20 20 20 21 21 20 19 18 17 15 14 13 11 10 9 8 8 5 5 9 8 6 6 5 4 3 4 4 4 6 9 10 9 10 9 10 13 16 18 18 16 17 21 25 26 23 21 20 22 25 26 25 24 23 23 21 20 24 27 23 16 15 15 14 16 17 20 26 23 20 22 28 30 27 25 26 28 28 27 25 25 24 22 21 20 19
22 22 22 21 21 21 21 20 20 18 16 15 13 12 11 9 8 7 6 4 7 9 8 7 7 7 6 5 4 2 3 5 6 7 8 8 9 11 11 11 14 17 15 15 20 23 23 24 22 19 21 23 26 28 25 23 25 21 15 16 23 27 24 18 15 17 19 17 17 22 23 23 23 25 27 29 28 26 28 30 28 25 26 25 24 23 21 19
23 23 23 22 21 21 20 19 19 18 16 14 12 11 10 8 6 4 3 4 5 7 6 6 8 9 8 8 6 4 7 7 4 7 9 8 8 9 9 11 12 14 15 18 21 19 19 26 26 19 21 24 25 25 24 24 25 22 14 11 16 21 26 26 21 19 18 19 21 22 21 20 23 24 21 23 28 28 27 30 30 26 25 26 25 24 22 20
24 24 23 23 21 20 20 19 19 17 16 15 13 10 9 6 3 1 3 5 4 6 7 5 7 7 5 6 7 6 6 6 7 9 10 9 9 8 8 11 14 15 16 21 24 19 16 23 27 23 23 25 24 20 20 23 25 22 14 10 12 15 21 26 26 24 20 20 24 25 23 18 18 26 26 22 26 28 27 28 30 30 26 26 25 23 22 22
25 24 24 23 21 20 19 19 18 16 15 14 13 10 8 4 1 4 5 5 3 5 7 6 6 5 2 2 5 7 6 6 6 7 8 10 10 10 10 10 13 16 16 19 24 23 18 18 21 25 25 24 22 19 19 20 21 21 17 14 13 15 17 20 24 26 20 19 26 27 26 20 16 23 30 28 26 27 26 25 27 29 27 26 25 23 22 23
25 25 24 23 21 19 17 17 17 16 14 13 12 10 6 2 3 6 6 6 5 3 4 5 5 5 3 2 4 7 6 7 6 2 2 4 5 8 9 7 8 12 15 18 22 23 23 21 20 21 21 21 22 22 20 19 19 19 19 17 16 15 16 17 21 24 17 15 23 27 27 25 21 23 26 26 25 25 27 27 25 26 28 28 25 24 23 21
26 25 24 22 20 18 16 14 14 14 13 12 10 7 3 3 7 7 4 5 4 1 2 2 3 4 6 5 6 8 6 6 5 3 2 2 2 6 9 8 8 10 13 17 19 20 24 28 25 20 18 20 22 23 22 21 22 22 21 20 18 14 13 13 15 18 16 16 21 24 26 28 29 29 26 24 23 21 25 28 26 24 26 28 26 23 22 20
26 25 23 21 19 17 15 13 12 12 11 10 9 4 3 6 6 5 2 3 4 3 3 3 5 7 7 4 5 7 5 6 5 1 3 3 2 6 11 13 14 13 11 11 13 17 20 24 27 26 23 22 24 25 25 24 25 26 25 24 20 13 9 10 11 11 14 18 22 24 23 25 30 31 28 27 25 19 20 25 26 24 23 25 26 23 20 19
26 24 23 21 19 17 14 12 10 9 9 9 6 3 6 7 5 4 2 2 6 6 4 5 5 7 6 3 3 3 2 6 6 3 1 1 3 2 4 9 14 16 12 11 12 16 16 16 21 28 27 24 27 29 25 22 23 27 27 24 24 20 13 9 10 11 12 14 20 25 22 20 24 25 24 28 29 24 21 21 23 24 23 23 25 24 22 20
25 24 22 20 18 16 14 12 9 7 8 7 4 5 8 7 2 2 3 3 4 4 5 7 4 3 2 2 4 3 2 4 7 3 1 1 3 3 2 6 12 13 11 11 11 13 17 14 12 21 27 24 25 29 26 21 20 23 26 26 27 27 20 13 11 13 13 11 15 23 22 18 17 16 16 19 24 28 28 26 26 26 26 25 24 24 25 24
24 22 20 19 18 17 15 12 8 5 4 4 4 7 7 6 3 2 5 5 3 2 4 6 2 0 2 1 3 5 5 4 5 3 1 2 3 5 6 9 12 11 11 10 7 8 15 15 8 14 25 24 22 24 26 26 21 19 26 29 28 25 22 19 15 14 13 10 11 19 21 19 17 17 20 19 18 21 26 29 30 31 30 29 26 26 26 26
21 21 19 18 17 16 14 11 7 4 1 3 5 7 5 7 8 7 7 7 5 4 3 4 3 1 3 2 1 4 7 5 3 3 2 2 3 7 6 7 11 10 12 12 8 6 11 15 11 11 17 21 24 25 25 27 24 20 23 26 24 22 23 22 16 13 13 10 10 17 20 20 19 17 21 27 26 24 24 25 27 28 30 31 30 30 29 27
20 20 18 16 15 14 13 10 6 3 2 4 5 9 5 5 8 9 9 6 3 3 3 4 4 3 3 3 3 4 6 4 3 4 4 2 4 9 6 4 8 9 11 12 8 6 11 16 16 14 15 17 23 27 26 28 30 26 21 21 24 24 23 23 17 12 12 9 9 16 20 21 22 18 14 21 30 32 30 28 27 27 28 29 31 31 31 29
20 18 16 15 14 12 10 8 5 5 4 4 3 6 5 4 7 7 6 3 1 1 3 4 4 4 3 4 4 4 5 4 4 4 4 3 3 9 8 5 6 8 10 11 8 7 8 11 14 13 15 14 17 25 28 29 31 30 24 21 25 26 22 23 22 16 12 8 8 13 15 17 22 23 16 14 20 27 30 30 30 29 28 27 29 31 32 31
18 16 14 14 13 10 8 5 4 5 4 4 4 5 5 4 5 6 5 3 1 2 3 3 4 3 3 4 4 4 4 4 5 4 4 4 4 7 9 9 9 8 10 10 8 8 7 10 14 12 13 16 20 25 28 29 30 33 33 29 26 26 25 24 24 24 20 11 7 8 10 13 17 21 20 16 14 17 21 24 27 28 28 27 29 31 31 31
17 13 13 14 12 8 6 5 4 5 4 3 3 5 6 4 3 4 5 3 2 3 3 2 4 4 4 5 5 5 6 6 6 5 6 5 6 5 8 10 10 8 8 7 6 8 8 10 16 16 14 18 22 22 24 27 26 26 32 36 32 28 26 22 18 24 26 18 12 8 6 9 10 13 18 19 16 16 17 19 21 23 25 26 28 29 30 31
17 12 12 13 10 7 6 5 3 4 4 2 2 3 5 4 3 3 4 3 2 3 4 3 4 5 6 7 7 8 10 9 9 8 7 7 6 5 8 12 10 6 5 4 5 9 10 10 15 19 19 20 22 20 20 26 26 23 24 31 35 34 32 26 18 19 25 23 20 15 11 9 7 6 10 13 14 16 16 18 20 21 22 23 26 27 29 32
17 12 11 11 9 7 7 4 3 4 2 1 0 2 3 4 4 3 2 3 3 3 4 4 6 6 7 7 8 9 9 9 9 9 8 8 7 8 11 12 9 5 3 4 4 6 9 11 14 19 20 21 25 24 21 23 26 29 28 26 29 33 33 28 18 13 18 22 21 15 11 12 11 8 8 9 10 11 12 14 17 19 20 22 24 25 27 32
16 12 11 9 6 7 7 4 3 3 3 3 2 1 2 4 6 5 4 5 5 4 5 6 7 7 7 7 8 9 8 8 7 6 7 7 8 11 12 11 8 3 2 4 6 5 7 10 12 15 15 15 20 23 24 24 24 29 32 27 25 27 25 22 15 10 13 18 21 16 11 12 13 12 12 12 12 12 12 12 12 14 17 19 20 22 25 30
16 11 11 10 6 7 7 5 4 4 3 4 4 3 2 3 5 6 5 6 7 5 5 7 7 6 7 8 8 9 8 8 8 7 7 7 8 11 11 11 9 5 4 8 10 8 9 10 11 13 12 11 10 10 14 17 18 25 29 24 24 28 26 22 20 19 17 17 20 19 15 12 11 10 11 11 11 13 13 13 12 12 15 19 20 23 24 27
14 9 10 9 5 7 11 8 6 5 5 4 3 4 3 2 3 4 2 3 5 4 3 5 6 6 8 8 8 10 9 9 9 9 9 9 9 9 11 13 12 9 10 11 9 8 9 13 15 16 18 19 13 7 5 6 8 15 18 14 15 24 31 29 25 27 25 20 22 23 17 13 11 8 8 8 9 11 11 11 10 9 10 14 19 23 24 24
14 10 10 8 4 6 9 9 6 5 4 4 3 4 4 3 3 4 2 1 4 4 3 6 5 6 9 9 9 10 10 9 10 10 11 11 10 9 12 14 13 13 14 11 8 8 9 13 16 17 22 27 25 20 15 14 14 14 13 11 9 13 23 28 28 31 27 19 23 25 19 18 17 10 4 4 7 9 8 7 7 7 7 7 10 16 19 20
13 11 10 7 6 7 7 6 6 6 5 4 4 5 6 5 4 3 2 2 3 3 4 6 5 5 8 10 11 11 10 10 10 10 9 9 9 9 11 12 11 13 14 10 9 9 11 14 16 17 21 26 27 26 21 18 19 18 17 16 14 12 14 19 24 29 25 19 22 22 16 18 21 14 8 7 11 13 12 10 9 9 10 9 8 10 12 13
12 10 9 8 8 9 8 7 6 6 6 6 5 5 6 5 5 4 3 3 3 3 3 3 5 6 8 11 12 11 10 10 10 9 9 10 11 12 13 12 11 11 10 10 10 9 11 15 15 15 19 22 25 27 24 21 22 22 21 20 18 17 16 16 18 21 22 22 25 22 15 15 17 15 14 14 16 18 17 14 12 12 14 13 10 9 8 8
12 10 9 8 8 10 10 8 6 4 5 6 4 6 6 4 4 5 3 3 3 3 4 3 6 8 9 9 10 9 10 11 12 13 13 13 14 13 13 12 10 10 10 11 11 10 13 16 13 13 18 20 20 23 24 23 24 25 25 23 21 20 18 18 18 20 21 22 23 25 25 23 20 21 24 22 19 19 20 19 19 20 19 16 13 12 12 12
12 10 8 8 8 10 9 7 5 4 4 4 3 5 6 4 5 6 5 4 3 3 5 5 7 9 9 8 8 9 11 12 13 14 15 16 17 16 15 15 13 13 13 13 12 12 14 16 14 14 18 19 17 18 21 23 24 27 28 26 23 22 20 19 18 20 22 21 20 24 30 31 30 33 35 32 25 23 25 26 25 24 22 19 15 14 14 15
14 10 8 8 8 9 7 5 5 4 3 4 5 7 7 5 6 7 5 5 3 4 6 6 7 8 8 8 9 10 12 13 14 16 16 18 20 20 21 21 20 20 19 17 15 15 16 17 14 13 17 18 15 15 17 19 20 24 29 28 26 24 21 19 19 21 24 23 21 22 26 31 36 40 40 38 32 28 27 26 25 26 25 21 17 16 15 15
Wind_Direction
352 349 346 342 340 336 333 331 329 328 323 319 315 311 309 307 303 299 296 293 287 281 276 274 270 263 255 249 243 236 230 230 226 222 218 222 227 220 217 214 213 217 217 217 215 212 212 209 208 208 211 216 217 214 212 210 202 205 212 219 226 210 185 152 112 122 109 132 173 159 164 168 162 164 168 172 167 169 178 183 184 176 170 174 181 182 182 182
352 351 348 346 344 340 338 337 334 333 329 325 322 317 314 310 305 300 297 294 289 285 278 271 268 264 256 248 240 237 232 229 225 224 225 227 232 225 221 221 219 219 219 219 217 214 215 215 214 211 211 215 217 218 218 214 207 206 212 219 221 200 194 179 152 134 131 157 174 160 167 173 175 173 170 176 177 172 178 183 180 180 178 179 181 179 178 181
348 348 347 344 344 343 341 339 337 335 333 331 329 326 322 318 311 303 302 298 292 289 283 274 266 261 256 248 236 234 233 232 228 227 230 231 232 228 222 222 223 224 223 221 217 214 213 215 219 218 218 218 217 218 219 220 215 214 213 217 225 202 186 177 169 159 152 148 155 163 164 172 185 178 166 174 186 176 166 173 178 184 190 186 178 178 179 177
346 345 344 341 339 340 339 338 336 333 330 329 329 328 326 324 318 310 308 302 298 294 289 281 269 259 254 248 236 230 231 238 236 229 232 234 233 229 222 220 221 223 223 221 216 213 209 208 210 216 222 224 224 222 221 221 216 225 215 206 224 202 186 193 181 162 157 147 148 162 159 168 186 179 167 173 178 177 182 182 185 189 197 195 180 178 180 174
344 344 342 339 336 335 335 335 334 331 329 329 327 324 322 322 318 314 312 307 302 300 296 290 278 264 253 247 239 229 225 240 241 229 229 234 234 230 222 219 219 219 220 221 220 217 212 208 205 208 212 218 227 226 226 223 212 221 216 199 211 193 190 210 192 171 163 157 154 157 160 173 182 173 163 168 166 168 195 199 191 189 183 191 188 182 181 173
344 343 342 339 335 333 331 330 329 330 331 333 330 325 322 320 318 314 311 308 304 304 303 298 290 276 259 248 240 230 219 227 237 228 226 230 234 232 222 218 219 218 218 219 221 221 217 212 211 210 208 210 220 223 228 229 217 217 220 206 201 190 197 208 197 195 184 165 158 160 174 177 168 160 158 163 167 168 186 190 180 181 171 174 183 184 182 172
348 347 346 343 338 336 332 328 325 327 332 337 335 329 324 321 319 315 310 306 304 306 307 304 299 287 270 254 243 234 224 225 231 229 226 226 230 230 219 215 217 218 216 217 219 221 220 219 218 216 211 210 215 218 224 228 223 220 217 211 201 193 202 209 202 194 187 179 175 178 180 173 161 165 175 166 169 178 180 185 174 171 168 167 172 178 183 176
351 350 350 348 345 342 339 335 329 327 332 337 336 331 327 324 320 316 309 305 305 307 307 305 303 294 281 263 247 237 230 228 227 226 226 225 227 224 216 213 215 216 216 216 219 222 224 225 223 220 217 216 217 218 222 224 227 226 214 206 206 198 202 211 207 192 187 192 193 191 176 176 172 174 193 174 163 168 170 175 165 158 162 164 167 172 182 181
350 350 349 349 347 345 343 340 335 332 334 336 334 330 327 324 319 314 308 305 307 307 306 304 303 297 286 273 255 239 232 230 226 223 225 225 225 222 212 208 210 213 214 213 215 218 221 224 225 224 220 221 222 222 222 222 229 233 222 213 211 203 207 211 205 199 196 198 199 193 179 189 184 174 190 190 172 167 166 167 154 142 149 161 168 173 179 182
346 347 348 348 347 346 344 341 338 335 336 336 331 327 326 324 318 310 305 304 305 304 305 305 302 296 287 278 264 247 235 233 230 224 224 225 226 221 206 199 203 209 212 212 212 213 217 219 223 226 222 222 227 227 224 218 218 232 227 219 214 208 213 210 202 205 204 206 201 191 190 201 194 179 184 199 189 177 175 174 160 145 142 157 170 175 177 177
343 345 346 347 346 345 343 340 337 335 337 337 331 328 327 323 317 310 305 301 300 301 304 305 302 296 287 278 266 253 241 235 232 227 224 224 224 221 209 199 200 205 208 210 211 211 212 214 217 222 223 224 228 230 230 221 215 227 227 222 223 217 217 211 203 205 204 214 209 195 200 208 204 185 174 201 195 183 183 177 170 160 152 158 169 178 179 175
341 343 343 344 344 343 342 340 338 335 337 338 333 331 328 323 318 312 307 302 298 299 303 304 302 299 290 280 267 257 248 241 234 228 226 224 223 223 218 210 208 208 206 205 205 207 208 211 213 213 217 222 224 229 234 228 220 227 229 228 239 232 226 217 207 208 208 217 214 201 203 212 213 190 173 198 191 180 186 180 177 175 170 171 170 180 181 179
338 339 339 340 340 340 340 339 339 337 335 336 334 333 330 324 318 314 311 306 300 300 304 305 304 302 295 286 273 259 250 247 239 231 227 225 223 224 224 220 216 212 208 201 196 200 205 210 210 206 212 214 218 227 228 229 226 228 232 233 242 244 237 224 213 212 211 215 211 202 209 218 219 200 186 197 188 183 187 182 184 181 181 184 175 182 186 186
334 336 335 335 335 335 334 336 337 336 333 332 330 330 328 322 318 315 313 308 303 305 307 309 308 301 294 288 280 268 253 246 242 234 228 227 226 225 225 224 220 213 210 204 195 196 200 205 207 206 212 206 207 229 225 229 231 227 231 235 237 242 239 224 215 213 211 217 212 203 217 221 214 203 198 197 187 186 187 183 190 187 185 189 184 186 189 192
332 333 332 330 330 329 330 331 332 331 331 330 328 327 325 320 316 315 313 308 307 309 309 311 310 306 302 293 284 277 261 247 242 236 229 226 226 226 226 226 222 213 208 206 199 195 194 199 206 207 213 212 211 223 221 225 230 221 222 227 226 231 233 217 212 212 209 215 214 206 219 221 203 200 202 201 196 198 201 195 195 193 190 193 193 191 192 194
331 332 330 328 326 324 324 326 327 327 329 330 328 326 325 321 318 317 312 307 307 306 311 312 309 313 309 301 293 284 272 256 245 237 230 225 224 225 225 226 223 213 207 205 201 196 191 196 207 209 211 217 218 217 217 221 220 215 217 221 218 220 224 218 214 213 207 209 214 211 219 222 199 201 208 213 215 217 223 216 205 202 198 196 196 194 194 195
330 330 329 326 324 322 320 322 323 324 326 328 327 325 326 325 320 318 312 308 304 303 312 303 309 322 303 299 304 287 288 281 261 247 236 228 224 223 223 224 222 215 210 206 201 196 193 195 205 209 209 213 215 211 213 216 211 209 214 220 219 216 219 219 213 211 207 209 216 215 220 224 206 204 212 220 225 225 228 227 216 210 205 199 199 199 199 199
327 327 326 325 323 321 320 321 321 321 323 325 324 322 322 321 318 318 316 312 307 311 314 274 322 340 279 285 298 285 293 294 282 268 248 235 228 223 221 221 218 213 212 207 201 198 195 196 204 210 212 213 210 206 210 213 209 206 209 216 218 215 217 217 212 210 209 211 217 218 221 225 218 209 211 216 225 228 229 233 231 220 213 205 200 201 203 202
327 327 327 325 323 321 320 319 319 319 320 322 321 318 316 316 318 319 313 307 305 298 281 267 294 283 247 279 297 295 302 299 293 286 264 245 233 227 223 221 215 211 212 208 202 201 196 194 202 209 212 212 209 206 209 211 210 211 214 217 217 217 217 215 214 210 208 213 220 222 223 224 221 215 215 220 231 238 230 228 234 231 220 215 206 204 205 205
329 330 331 330 326 323 320 318 317 316 317 319 318 316 315 315 315 308 299 303 300 285 272 267 270 260 263 286 296 300 307 308 303 295 281 255 236 229 226 222 215 209 210 207 203 203 199 197 206 209 209 211 212 210 210 214 216 215 219 222 221 222 221 215 215 216 211 216 223 225 228 228 225 222 225 233 240 242 231 224 230 230 222 219 212 208 207 204
332 332 335 335 331 328 322 318 318 317 317 319 318 316 311 310 301 283 286 292 286 280 276 271 269 268 272 282 287 296 309 312 304 294 289 259 234 227 228 224 217 212 207 200 201 204 203 206 213 213 210 210 215 215 214 217 221 221 221 224 224 222 222 217 215 218 216 221 228 227 229 231 228 225 228 238 242 237 234 233 234 230 226 225 218 214 212 206
334 334 337 337 333 330 326 323 324 324 324 323 321 317 309 307 299 286 287 285 278 275 272 271 274 273 270 273 278 288 300 302 295 288 278 253 225 215 226 224 216 216 208 197 194 200 207 214 216 216 213 212 215 217 215 217 220 222 223 228 229 223 223 222 217 215 214 222 230 229 230 232 231 228 225 232 237 238 241 242 238 232 228 226 220 217 217 211
336 336 338 338 334 331 330 330 331 332 331 329 325 318 310 305 299 295 295 294 291 285 278 276 273 270 269 263 262 274 279 265 273 278 271 248 220 212 220 218 210 213 211 204 198 199 210 219 218 216 215 214 214 212 209 213 219 222 225 229 232 226 221 224 222 218 219 225 229 232 238 236 231 230 227 227 231 236 244 244 238 233 225 222 225 226 222 215
338 337 339 339 335 332 332 332 332 332 331 329 323 315 310 305 301 301 299 299 295 288 284 281 276 267 262 255 247 250 251 241 250 265 262 242 228 227 225 215 208 211 212 209 208 211 216 221 221 217 214 213 211 211 210 214 223 226 225 227 229 227 223 226 225 216 221 229 230 234 245 241 230 227 227 226 227 230 238 242 237 230 223 222 227 229 226 221
337 338 339 339 336 332 331 331 330 330 327 324 319 314 312 307 307 302 301 309 294 282 279 273 275 267 257 246 222 227 244 250 247 250 258 249 233 227 221 214 213 214 216 214 215 223 225 225 227 217 210 212 211 216 219 217 225 229 227 225 224 227 228 230 232 225 226 230 227 226 239 243 230 225 226 223 223 226 231 238 237 232 227 222 219 219 221 222
336 337 338 338 337 332 331 329 327 328 325 322 319 316 312 308 307 300 304 309 254 260 270 262 266 265 256 240 222 240 260 259 254 246 250 255 241 228 225 225 224 218 218 219 221 229 227 226 231 217 206 215 218 221 223 218 224 231 230 227 225 227 230 231 233 233 232 234 225 219 229 244 233 225 226 222 222 225 230 237 238 234 231 223 216 216 219 220
335 337 337 337 336 332 331 328 324 325 322 320 320 315 312 309 307 304 304 278 224 237 253 242 241 250 256 253 244 242 215 235 268 260 247 249 242 236 229 224 228 226 217 215 223 229 224 219 224 216 209 217 221 223 222 217 223 230 230 229 227 226 230 232 235 236 237 245 237 218 224 243 240 228 225 221 221 223 226 234 238 235 232 226 220 220 220 221
336 337 336 335 335 333 330 326 322 322 320 320 320 314 313 307 301 305 290 259 223 226 242 236 238 251 264 273 269 236 221 232 252 258 257 255 245 242 230 217 226 233 222 217 225 228 221 219 220 215 213 218 222 224 222 218 223 229 229 230 227 226 230 232 236 240 240 247 244 224 218 237 241 231 224 220 220 219 219 229 236 234 229 225 224 224 221 222
337 336 334 332 334 331 327 325 322 321 321 319 319 320 316 306 290 234 241 259 246 233 239 245 253 263 284 302 303 287 255 246 231 242 259 259 252 247 234 226 226 230 227 226 231 230 227 229 226 221 219 220 222 223 220 220 223 226 230 233 229 229 231 231 232 237 240 243 242 230 219 228 239 230 224 219 218 218 217 225 234 235 230 226 225 226 224 224
336 333 331 330 331 330 326 325 320 319 320 316 320 323 315 309 242 216 230 222 209 234 239 250 267 280 337 356 320 311 297 284 259 256 269 263 258 252 244 244 233 229 232 234 236 234 234 241 232 224 224 222 222 223 221 221 223 225 231 233 233 233 231 229 228 230 237 241 238 233 226 229 243 233 225 223 222 221 219 221 229 231 230 229 225 224 225 226
334 330 329 330 329 329 327 324 320 317 317 313 315 321 319 305 231 242 246 213 213 262 257 274 288 284 315 352 313 311 318 311 290 266 288 278 270 256 247 253 241 233 235 235 238 235 231 235 230 224 224 219 219 225 225 223 221 224 228 225 227 228 221 222 222 221 230 238 233 233 231 231 240 236 227 225 226 226 222 219 222 225 227 229 225 222 225 226
332 329 329 330 329 329 327 325 318 309 309 306 304 315 313 257 237 235 247 229 232 258 207 259 316 314 329 344 319 310 323 332 309 253 222 208 237 250 233 223 222 227 234 231 231 232 230 232 231 227 224 217 216 221 223 221 219 221 222 215 216 216 208 211 213 214 227 235 230 229 230 232 239 239 232 228 228 227 222 219 220 221 225 229 226 223 225 228
332 330 331 332 330 331 329 325 315 301 297 290 288 301 252 250 242 217 219 235 224 196 195 250 318 330 338 352 331 322 323 329 336 304 243 202 212 255 242 233 223 218 239 247 233 230 229 229 229 227 225 217 211 213 216 215 214 216 214 209 211 209 201 207 212 217 229 231 226 224 230 237 241 242 236 230 228 225 221 219 219 219 221 227 227 223 224 228
333 334 334 333 331 332 331 324 314 297 282 274 274 246 220 238 246 225 212 229 231 231 253 282 315 335 343 358 344 1 14 324 336 28 20 203 190 224 253 248 227 214 235 260 246 236 234 230 224 221 221 216 211 213 215 214 215 216 212 211 216 217 213 212 213 220 227 229 221 216 223 235 238 239 236 231 229 226 221 216 214 216 217 222 226 225 226 229
336 338 336 333 332 333 333 326 318 298 271 261 247 220 228 239 250 223 204 211 235 242 283 297 318 336 324 8 2 14 71 336 336 9 49 188 191 198 243 256 234 218 223 242 247 244 242 245 230 213 213 212 212 214 215 216 220 215 209 214 219 218 223 233 235 233 234 239 221 209 215 227 232 235 227 223 226 226 226 224 221 222 221 220 224 225 228 230
338 338 336 336 337 337 335 328 326 310 264 232 216 220 234 234 200 184 213 219 225 227 287 299 305 222 264 3 26 1 359 342 343 359 243 212 210 229 243 250 245 229 214 224 247 250 240 242 236 213 211 210 211 213 210 212 219 210 205 214 219 216 225 237 245 245 242 249 227 211 216 224 231 239 231 221 220 220 222 227 229 230 228 226 226 226 227 231
340 340 340 342 340 336 333 331 337 329 241 165 211 224 235 240 227 222 227 222 224 245 281 281 255 243 283 294 351 356 355 345 341 346 274 233 233 240 244 249 250 237 215 216 231 254 252 250 247 224 215 214 211 210 208 211 219 217 210 213 215 216 225 233 241 240 232 237 228 217 221 222 223 235 232 224 222 220 219 223 225 227 228 228 229 230 229 231
345 344 343 344 338 333 335 337 348 12 103 134 214 227 222 234 234 228 229 226 229 271 283 260 273 294 280 291 316 339 352 346 338 328 281 240 244 251 250 239 251 245 220 212 218 251 261 260 256 232 218 220 212 210 214 216 220 227 228 215 207 210 217 221 228 235 227 231 230 222 225 226 224 224 223 221 221 223 225 225 224 223 224 225 227 230 231 230
351 347 343 343 340 336 340 343 6 53 98 141 201 220 201 211 234 232 231 233 221 282 280 260 283 297 277 301 318 324 345 338 334 325 273 236 246 260 256 233 244 251 229 212 216 251 257 261 262 230 211 223 216 211 218 218 215 224 237 232 217 216 217 215 221 232 234 237 233 222 222 226 228 226 225 223 219 220 223 225 226 224 223 224 226 228 230 229
353 351 340 341 344 337 346 8 44 75 123 180 197 207 198 204 241 248 243 242 232 261 276 271 276 274 278 307 306 303 330 324 310 299 274 258 246 268 267 246 244 249 238 226 227 251 256 250 253 236 216 225 221 214 217 218 214 215 224 228 220 218 220 220 224 228 232 242 242 226 222 224 227 225 224 224 216 212 216 220 224 224 222 223 227 229 230 230
356 353 337 340 349 349 11 45 67 89 119 166 199 213 216 215 233 253 259 261 263 269 268 263 270 273 286 295 294 298 306 308 297 279 279 263 238 265 276 256 251 246 240 244 244 248 252 247 248 246 240 235 226 218 218 221 221 218 220 221 219 217 217 219 224 225 227 235 237 236 239 227 218 214 217 220 219 216 216 216 219 221 220 221 225 228 231 231
358 352 338 344 357 13 38 48 54 83 107 140 185 218 228 231 225 237 268 278 281 288 289 275 270 276 285 284 287 298 298 296 289 275 270 262 246 262 269 262 264 258 251 270 259 247 246 248 250 247 248 245 230 219 217 221 225 227 222 219 220 220 217 219 226 224 225 230 232 238 246 229 202 183 194 205 214 221 226 226 224 223 221 220 222 224 229 232
360 354 347 350 360 32 55 55 44 55 64 81 88 254 235 224 225 228 261 265 253 281 287 272 271 273 274 276 281 292 293 288 280 264 256 258 253 253 262 270 277 273 282 281 262 260 251 245 249 250 254 252 236 227 227 226 227 229 223 218 219 219 219 224 233 235 231 226 220 225 236 229 221 211 196 196 207 217 223 226 226 226 223 223 225 224 227 232
358 357 358 356 4 43 66 88 82 53 31 60 70 308 267 243 237 233 250 256 249 267 275 261 263 268 272 279 280 279 280 280 272 254 248 249 250 260 272 286 286 276 294 254 232 248 257 245 246 251 254 246 233 231 231 228 229 229 225 222 224 222 223 230 239 244 241 231 223 221 225 226 229 228 224 228 232 230 230 229 227 227 222 219 224 224 224 230
358 1 2 360 15 47 55 78 95 83 73 79 78 45 1 290 254 241 253 266 259 263 270 263 263 267 271 276 273 264 260 263 261 255 254 249 256 274 288 294 289 275 266 256 241 243 260 258 255 252 244 229 220 224 224 223 226 224 222 225 229 227 226 232 236 233 232 234 232 230 227 220 214 214 220 230 236 232 232 233 232 232 222 212 213 217 220 227
1 4 1 360 18 43 45 57 80 91 90 84 69 46 32 5 310 287 283 273 269 273 270 268 274 275 274 276 273 267 263 261 259 259 266 267 267 278 285 287 289 281 273 274 264 255 261 259 256 256 255 254 266 300 300 279 258 228 221 228 232 229 228 229 232 231 229 233 233 231 236 233 213 198 210 225 231 226 224 226 229 231 222 212 214 220 224 227
3 6 8 18 48 46 39 47 62 74 77 80 80 50 30 24 347 320 313 251 277 298 286 272 278 277 277 283 285 282 280 277 272 270 277 280 277 279 283 285 289 285 283 287 277 262 262 260 256 256 258 262 272 286 290 289 282 263 252 251 242 232 228 227 229 228 229 237 234 228 234 238 228 215 220 225 209 209 215 218 216 210 207 218 224 220 221 227
4 3 7 29 60 52 40 40 43 47 46 54 72 51 28 18 360 333 303 284 292 302 285 277 288 291 283 285 286 286 290 291 284 278 277 279 280 284 286 286 284 282 284 283 271 257 253 260 262 259 261 265 269 273 276 275 271 267 265 259 251 247 235 229 229 226 226 233 232 226 226 231 231 234 245 224 196 197 207 210 210 218 229 241 237 215 211 224
4 2 8 30 47 43 41 41 40 42 46 57 57 28 20 16 3 345 310 309 308 297 294 282 284 291 287 285 285 283 285 285 281 276 275 279 284 286 286 284 275 271 272 266 261 258 252 259 265 266 268 269 267 265 265 266 265 263 261 257 253 252 244 235 231 226 225 229 230 232 234 223 226 242 242 216 199 206 216 223 235 246 246 243 236 223 217 222
5 5 15 32 36 34 35 36 42 51 47 58 53 10 11 14 353 348 326 312 301 283 298 295 281 288 291 290 294 291 284 282 277 275 276 278 281 282 283 281 270 261 263 261 258 254 250 256 264 273 276 274 268 265 263 259 260 260 259 256 253 251 244 236 233 227 227 230 228 232 238 233 235 251 245 228 222 232 241 251 259 257 252 247 240 233 226 217
12 10 17 32 38 38 34 26 40 58 39 41 36 357 4 360 345 356 346 319 302 274 290 296 290 298 301 297 300 297 289 286 281 278 278 276 275 274 270 267 263 261 261 262 260 249 244 253 261 268 274 273 268 267 261 255 255 258 256 251 246 244 240 234 231 223 221 224 221 224 233 238 244 251 250 244 245 252 257 260 259 254 253 251 242 233 227 220
19 15 14 33 46 43 34 25 38 48 24 10 358 349 354 345 341 354 348 328 325 296 297 301 296 302 307 298 291 288 286 287 284 281 279 275 272 270 267 265 263 261 258 256 256 248 242 249 253 255 265 269 269 268 260 251 250 250 248 245 240 237 234 232 230 223 218 216 215 218 226 233 239 244 248 249 250 252 256 259 257 255 254 250 241 231 224 222
Height
3156 3155 3154 3153 3152 3151 3150 3150 3149 3148 3147 3146 3146 3145 3145 3144 3143 3143 3142 3142 3142 3141 3141 3141 3141 3142 3142 3142 3143 3143 3143 3144 3144 3144 3144 3143 3144 3145 3146 3147 3148 3150 3152 3153 3155 3157 3159 3161 3162 3164 3165 3166 3167 3168 3169 3170 3171 3172 3173 3174 3175 3175 3174 3174 3175 3174 3175 3177 3176 3176 3177 3178 3179 3179 3180 3180 3181 3181 3181 3182 3183 3183 3183 3183 3183 3184 3186 3187
3155 3154 3153 3152 3151 3150 3149 3148 3148 3147 3146 3145 3145 3144 3143 3143 3142 3142 3141 3141 3140 3140 3140 3140 3140 3140 3140 3141 3141 3142 3142 3142 3142 3142 3142 3143 3144 3145 3145 3147 3148 3149 3151 3152 3155 3158 3159 3161 3162 3163 3164 3165 3166 3167 3168 3170 3171 3172 3173 3174 3175 3175 3174 3173 3174 3174 3175 3177 3176 3176 3177 3178 3179 3179 3180 3181 3181 3181 3182 3182 3182 3183 3183 3183 3183 3184 3185 3187
3154 3153 3152 3151 3150 3149 3148 3147 3146 3146 3145 3145 3144 3143 3143 3142 3141 3141 3140 3139 3139 3139 3138 3138 3138 3138 3139 3139 3140 3140 3140 3140 3140 3140 3141 3142 3143 3143 3145 3146 3147 3149 3151 3153 3155 3157 3158 3160 3161 3163 3164 3165 3166 3167 3168 3169 3170 3171 3172 3174 3175 3174 3174 3173 3173 3174 3174 3175 3176 3176 3176 3178 3179 3179 3180 3181 3182 3182 3182 3182 3182 3183 3183 3183 3183 3184 3185 3186
3153 3152 3151 3150 3149 3148 3147 3146 3145 3144 3144 3143 3143 3142 3142 3141 3140 3139 3139 3138 3138 3137 3137 3137 3137 3137 3137 3137 3138 3139 3139 3139 3138 3139 3140 3140 3141 3142 3144 3145 3146 3148 3150 3152 3153 3155 3156 3158 3160 3162 3164 3165 3166 3166 3167 3168 3170 3171 3172 3174 3174 3173 3173 3173 3173 3173 3174 3174 3175 3176 3176 3178 3179 3179 3180 3181 3182 3183 3183 3183 3182 3182 3183 3183 3184 3184 3185 3186
3152 3151 3150 3148 3147 3147 3146 3145 3144 3143 3142 3142 3142 3141 3140 3140 3139 3138 3138 3137 3136 3136 3136 3135 3135 3135 3135 3136 3136 3137 3138 3138 3137 3137 3138 3139 3140 3141 3143 3144 3145 3147 3148 3150 3152 3153 3154 3156 3158 3159 3162 3164 3165 3166 3167 3168 3169 3170 3171 3173 3173 3173 3174 3173 3173 3174 3174 3174 3175 3175 3176 3177 3178 3178 3179 3181 3183 3184 3184 3183 3182 3182 3183 3183 3184 3185 3186 3186
3150 3149 3148 3147 3146 3145 3144 3144 3143 3142 3141 3141 3140 3139 3139 3138 3138 3137 3136 3136 3135 3135 3135 3134 3134 3134 3134 3134 3134 3135 3136 3136 3135 3136 3137 3137 3138 3140 3142 3143 3144 3145 3147 3149 3150 3152 3154 3155 3157 3158 3161 3163 3164 3165 3167 3167 3168 3170 3171 3172 3172 3172 3173 3173 3173 3173 3174 3174 3175 3176 3176 3176 3177 3178 3179 3180 3183 3184 3183 3183 3182 3182 3182 3183 3184 3185 3186 3187
3149 3148 3147 3146 3145 3144 3143 3142 3141 3140 3140 3140 3139 3138 3137 3136 3136 3135 3135 3134 3134 3134 3134 3133 3133 3133 3132 3133 3133 3133 3134 3134 3134 3135 3135 3136 3136 3138 3141 3142 3142 3144 3145 3147 3149 3151 3153 3154 3156 3158 3160 3162 3163 3165 3165 3166 3167 3169 3170 3171 3171 3172 3172 3172 3173 3173 3173 3174 3174 3175 3176 3176 3177 3178 3179 3180 3182 3183 3182 3182 3182 3182 3182 3183 3184 3185 3186 3187
3149 3147 3146 3145 3144 3143 3142 3141 3140 3139 3139 3138 3137 3136 3135 3135 3134 3134 3133 3133 3132 3132 3132 3132 3132 3131 3131 3131 3131 3132 3132 3132 3132 3133 3134 3134 3135 3137 3139 3140 3141 3142 3144 3146 3148 3150 3152 3154 3156 3158 3160 3162 3162 3163 3164 3165 3167 3167 3169 3170 3171 3171 3171 3171 3172 3172 3173 3174 3174 3174 3175 3176 3176 3178 3179 3179 3181 3181 3181 3182 3182 3182 3183 3183 3184 3185 3186 3187
3148 3146 3145 3144 3143 3142 3141 3140 3139 3138 3137 3137 3136 3135 3134 3133 3133 3132 3131 3131 3131 3131 3130 3130 3130 3130 3130 3130 3130 3130 3130 3130 3130 3131 3132 3133 3134 3135 3137 3139 3140 3141 3143 3145 3147 3149 3151 3153 3156 3158 3160 3161 3162 3162 3163 3165 3167 3166 3167 3169 3170 3170 3171 3171 3171 3172 3173 3173 3173 3174 3175 3176 3176 3177 3178 3178 3179 3180 3181 3181 3182 3182 3183 3184 3184 3185 3186 3188
3147 3146 3145 3143 3142 3141 3140 3139 3137 3136 3136 3135 3134 3133 3132 3131 3131 3130 3130 3129 3129 3129 3129 3129 3128 3128 3128 3129 3129 3129 3128 3128 3129 3130 3131 3131 3132 3134 3136 3137 3138 3140 3141 3143 3145 3147 3150 3153 3156 3157 3159 3160 3160 3161 3162 3164 3165 3165 3166 3167 3168 3169 3169 3170 3171 3171 3172 3173 3173 3174 3175 3176 3176 3176 3178 3178 3178 3179 3180 3181 3182 3182 3183 3184 3185 3185 3187 3188
3145 3144 3143 3142 3141 3140 3139 3138 3136 3135 3134 3134 3132 3131 3130 3129 3129 3128 3128 3128 3127 3127 3127 3127 3127 3126 3126 3127 3127 3127 3127 3127 3127 3128 3129 3130 3131 3132 3134 3136 3137 3138 3140 3142 3144 3147 3150 3153 3154 3156 3157 3158 3158 3160 3160 3162 3163 3163 3164 3166 3167 3167 3168 3168 3169 3170 3171 3172 3172 3173 3174 3175 3175 3175 3177 3178 3177 3178 3179 3180 3182 3182 3183 3184 3185 3185 3186 3188
3144 3143 3142 3141 3140 3139 3138 3136 3135 3134 3133 3132 3131 3130 3129 3127 3127 3126 3126 3126 3125 3126 3126 3125 3125 3125 3124 3125 3125 3125 3125 3125 3125 3127 3127 3128 3129 3130 3132 3134 3136 3137 3138 3140 3143 3146 3149 3151 3152 3154 3156 3156 3158 3160 3159 3159 3162 3162 3163 3165 3166 3167 3167 3167 3168 3170 3171 3172 3172 3172 3174 3174 3174 3174 3176 3177 3176 3177 3178 3180 3181 3182 3183 3184 3185 3185 3186 3188
3143 3142 3141 3140 3139 3138 3136 3135 3134 3132 3131 3130 3129 3128 3127 3126 3125 3124 3124 3124 3123 3124 3124 3124 3123 3123 3123 3123 3123 3123 3123 3123 3124 3125 3126 3127 3128 3129 3131 3132 3134 3135 3137 3138 3141 3144 3146 3148 3151 3153 3153 3155 3158 3158 3156 3158 3160 3161 3163 3164 3165 3166 3165 3166 3168 3169 3170 3171 3170 3171 3172 3173 3173 3174 3175 3175 3175 3176 3178 3179 3180 3181 3182 3183 3184 3185 3186 3187
3141 3140 3139 3138 3138 3136 3135 3134 3133 3131 3130 3129 3128 3127 3126 3124 3123 3122 3122 3122 3122 3122 3122 3122 3122 3122 3121 3121 3121 3121 3121 3121 3122 3123 3124 3125 3127 3128 3129 3131 3132 3134 3135 3137 3138 3140 3143 3146 3149 3151 3151 3153 3155 3154 3155 3159 3159 3161 3163 3163 3164 3164 3164 3165 3167 3168 3169 3169 3169 3170 3171 3171 3173 3174 3174 3174 3174 3176 3177 3178 3179 3180 3181 3183 3184 3185 3186 3187
3139 3138 3138 3137 3136 3134 3133 3132 3131 3130 3129 3128 3127 3125 3124 3123 3121 3121 3121 3120 3120 3121 3121 3121 3120 3120 3120 3119 3119 3119 3119 3120 3120 3121 3122 3123 3125 3126 3128 3129 3131 3133 3134 3135 3137 3138 3140 3144 3146 3148 3149 3151 3152 3153 3156 3159 3158 3160 3161 3161 3162 3163 3163 3164 3165 3166 3168 3168 3168 3169 3171 3171 3171 3173 3173 3173 3174 3175 3176 3177 3178 3180 3181 3182 3183 3184 3185 3187
3137 3137 3136 3134 3133 3132 3131 3130 3129 3128 3127 3126 3125 3124 3123 3121 3120 3120 3119 3119 3119 3120 3120 3120 3119 3119 3119 3118 3118 3117 3117 3118 3118 3119 3120 3121 3123 3124 3126 3128 3130 3131 3133 3134 3135 3137 3139 3141 3144 3146 3148 3149 3150 3153 3156 3157 3157 3158 3158 3159 3160 3161 3162 3163 3163 3164 3166 3167 3167 3167 3169 3169 3170 3172 3172 3172 3173 3174 3175 3176 3177 3179 3180 3181 3183 3184 3185 3186
3136 3135 3133 3132 3131 3130 3129 3128 3128 3127 3126 3124 3123 3122 3121 3119 3118 3118 3118 3118 3118 3119 3119 3119 3119 3118 3118 3117 3117 3116 3116 3117 3117 3118 3118 3119 3121 3122 3124 3126 3128 3130 3131 3133 3134 3135 3137 3139 3141 3144 3145 3147 3149 3152 3154 3153 3153 3155 3156 3157 3157 3158 3160 3161 3161 3162 3164 3165 3166 3166 3167 3168 3169 3171 3171 3171 3172 3173 3174 3175 3176 3178 3179 3180 3182 3183 3184 3185
3134 3133 3132 3130 3128 3127 3126 3126 3125 3125 3124 3123 3121 3120 3119 3118 3117 3117 3117 3117 3117 3117 3118 3118 3118 3118 3117 3116 3116 3116 3116 3116 3116 3116 3117 3118 3119 3121 3122 3124 3127 3128 3130 3131 3133 3134 3136 3138 3140 3142 3144 3144 3146 3148 3148 3148 3150 3152 3153 3154 3155 3157 3157 3158 3159 3160 3161 3163 3164 3164 3165 3167 3169 3170 3169 3170 3171 3172 3174 3174 3175 3176 3177 3179 3180 3182 3183 3184
3133 3132 3130 3128 3127 3126 3125 3124 3123 3123 3122 3121 3120 3119 3118 3117 3116 3115 3116 3116 3116 3116 3116 3116 3117 3117 3117 3115 3115 3115 3115 3115 3115 3115 3116 3117 3118 3119 3121 3123 3125 3127 3129 3130 3131 3132 3134 3137 3138 3138 3138 3138 3140 3143 3145 3147 3149 3150 3151 3152 3154 3155 3155 3157 3158 3159 3160 3161 3162 3162 3163 3165 3167 3168 3168 3168 3169 3170 3172 3173 3174 3175 3176 3177 3179 3180 3182 3183
3132 3130 3129 3127 3126 3125 3123 3123 3122 3121 3121 3120 3119 3118 3117 3116 3115 3114 3114 3115 3115 3115 3115 3115 3115 3115 3115 3114 3114 3113 3114 3114 3114 3114 3115 3116 3117 3118 3120 3122 3123 3125 3126 3128 3130 3130 3132 3134 3132 3131 3133 3136 3139 3141 3144 3147 3148 3148 3150 3151 3152 3153 3154 3156 3158 3158 3158 3160 3160 3160 3162 3163 3165 3167 3167 3166 3167 3169 3170 3171 3172 3173 3174 3176 3178 3179 3181 3182
3131 3129 3128 3126 3125 3123 3122 3121 3120 3120 3119 3118 3117 3117 3116 3115 3114 3113 3113 3114 3113 3113 3113 3113 3113 3114 3113 3113 3112 3112 3112 3113 3113 3113 3114 3114 3115 3117 3119 3120 3122 3123 3125 3128 3129 3129 3130 3129 3128 3129 3134 3138 3140 3141 3143 3145 3147 3147 3149 3150 3151 3152 3153 3154 3156 3157 3157 3158 3158 3159 3160 3161 3163 3165 3165 3165 3165 3166 3168 3169 3170 3171 3173 3174 3176 3178 3179 3181
3129 3128 3126 3125 3123 3122 3120 3119 3119 3118 3117 3116 3116 3115 3114 3114 3113 3112 3112 3112 3112 3112 3111 3111 3112 3112 3111 3111 3111 3111 3112 3112 3112 3111 3112 3113 3115 3117 3117 3119 3121 3122 3124 3126 3127 3128 3127 3125 3126 3131 3135 3137 3138 3140 3142 3143 3145 3147 3148 3149 3149 3150 3152 3153 3155 3155 3156 3156 3156 3158 3159 3159 3161 3162 3164 3163 3163 3164 3166 3167 3168 3170 3171 3173 3174 3176 3177 3179
3128 3126 3125 3123 3122 3120 3118 3117 3117 3116 3115 3115 3114 3113 3113 3112 3112 3111 3110 3110 3109 3110 3109 3109 3110 3110 3110 3110 3110 3110 3110 3111 3111 3110 3111 3112 3113 3114 3115 3117 3120 3122 3123 3124 3125 3125 3124 3124 3127 3131 3134 3135 3136 3138 3139 3142 3143 3144 3146 3147 3147 3149 3151 3151 3152 3153 3154 3155 3155 3157 3157 3157 3159 3160 3161 3162 3162 3162 3164 3165 3167 3168 3169 3171 3173 3174 3175 3177
3127 3125 3123 3122 3120 3118 3116 3115 3115 3114 3114 3113 3113 3112 3111 3110 3110 3109 3109 3108 3108 3107 3107 3108 3108 3108 3108 3109 3109 3109 3109 3110 3109 3109 3109 3110 3112 3113 3114 3117 3119 3121 3122 3122 3124 3123 3124 3126 3127 3130 3132 3133 3135 3136 3137 3140 3141 3142 3144 3145 3146 3148 3149 3150 3151 3151 3153 3153 3153 3156 3155 3153 3155 3157 3158 3159 3160 3161 3162 3162 3164 3165 3167 3168 3169 3171 3173 3175
3125 3124 3122 3120 3118 3116 3115 3114 3113 3112 3112 3111 3111 3110 3109 3109 3108 3108 3107 3108 3107 3105 3106 3106 3106 3107 3107 3107 3108 3108 3108 3108 3108 3108 3108 3108 3110 3111 3113 3115 3116 3119 3120 3121 3122 3122 3124 3126 3125 3127 3130 3130 3132 3134 3136 3138 3140 3141 3141 3142 3145 3147 3148 3149 3150 3150 3151 3150 3151 3154 3152 3148 3151 3154 3154 3156 3157 3158 3159 3159 3161 3163 3164 3166 3167 3169 3171 3173
3123 3122 3120 3119 3117 3115 3114 3112 3111 3111 3110 3109 3109 3108 3108 3107 3107 3107 3106 3107 3106 3104 3104 3105 3106 3106 3106 3106 3107 3107 3107 3107 3106 3107 3107 3107 3108 3109 3111 3112 3114 3117 3119 3120 3121 3120 3121 3124 3124 3125 3127 3128 3131 3133 3134 3137 3139 3139 3138 3140 3143 3145 3146 3147 3148 3149 3149 3147 3147 3150 3148 3144 3146 3148 3150 3153 3154 3155 3156 3157 3158 3160 3162 3164 3166 3167 3169 3170
3121 3120 3118 3117 3115 3114 3112 3111 3110 3109 3108 3107 3107 3106 3106 3106 3106 3105 3106 3106 3104 3103 3103 3104 3104 3104 3104 3105 3105 3106 3107 3106 3105 3105 3105 3106 3107 3107 3110 3112 3113 3114 3117 3118 3117 3116 3117 3121 3122 3122 3124 3127 3128 3130 3132 3135 3136 3136 3138 3140 3140 3143 3145 3145 3147 3147 3146 3146 3145 3146 3148 3144 3141 3143 3145 3149 3151 3152 3153 3154 3155 3157 3159 3162 3164 3165 3167 3169
3119 3118 3116 3115 3114 3112 3110 3109 3108 3107 3106 3105 3105 3105 3104 3104 3104 3105 3105 3103 3100 3101 3102 3102 3102 3102 3103 3103 3104 3105 3105 3105 3105 3104 3104 3105 3105 3106 3108 3110 3112 3113 3115 3115 3113 3114 3115 3118 3119 3120 3122 3124 3125 3127 3130 3133 3133 3135 3138 3138 3139 3141 3142 3144 3146 3145 3146 3147 3142 3142 3146 3143 3138 3140 3143 3145 3146 3148 3149 3151 3152 3154 3157 3159 3162 3163 3165 3167
3117 3115 3114 3113 3112 3110 3108 3107 3105 3104 3103 3103 3103 3103 3102 3103 3103 3104 3105 3102 3099 3101 3101 3101 3101 3101 3101 3102 3102 3102 3103 3103 3104 3103 3103 3103 3104 3105 3106 3107 3109 3110 3112 3112 3112 3114 3114 3115 3117 3119 3119 3121 3124 3127 3129 3130 3131 3134 3136 3136 3138 3139 3140 3143 3143 3144 3146 3142 3135 3138 3142 3138 3134 3136 3140 3140 3142 3144 3146 3149 3149 3151 3154 3156 3159 3162 3163 3165
3115 3113 3112 3111 3110 3108 3106 3104 3103 3102 3101 3101 3101 3101 3101 3101 3102 3103 3103 3101 3100 3100 3099 3100 3100 3100 3101 3103 3102 3101 3101 3101 3101 3101 3102 3102 3102 3103 3104 3105 3106 3107 3109 3110 3110 3111 3113 3113 3114 3116 3116 3119 3123 3125 3126 3128 3130 3133 3135 3135 3137 3137 3138 3140 3140 3143 3143 3133 3129 3135 3138 3137 3131 3130 3134 3136 3137 3141 3144 3146 3147 3148 3151 3154 3156 3159 3161 3162
3113 3111 3110 3109 3107 3106 3104 3102 3101 3100 3099 3099 3099 3100 3100 3100 3102 3102 3099 3098 3100 3099 3099 3099 3099 3099 3100 3102 3102 3100 3100 3099 3099 3100 3101 3101 3102 3102 3103 3104 3105 3106 3107 3107 3107 3108 3110 3110 3110 3112 3114 3116 3120 3122 3124 3126 3128 3130 3132 3134 3135 3134 3135 3136 3136 3139 3133 3123 3127 3132 3135 3135 3127 3124 3130 3133 3135 3138 3141 3144 3145 3146 3149 3150 3154 3156 3158 3160
3111 3109 3107 3106 3105 3104 3102 3101 3099 3098 3098 3098 3098 3099 3100 3100 3101 3099 3097 3098 3100 3099 3098 3099 3098 3098 3099 3100 3100 3099 3099 3098 3098 3099 3099 3101 3101 3100 3101 3102 3103 3104 3104 3103 3104 3105 3106 3106 3107 3110 3112 3113 3117 3119 3121 3123 3125 3127 3129 3131 3131 3129 3130 3131 3129 3128 3123 3120 3126 3130 3131 3129 3120 3121 3129 3131 3133 3135 3137 3140 3143 3145 3147 3148 3151 3154 3156 3158
3108 3106 3105 3104 3102 3101 3100 3099 3098 3097 3096 3097 3097 3098 3100 3100 3098 3096 3097 3098 3098 3097 3097 3097 3097 3098 3098 3099 3099 3097 3098 3097 3097 3097 3098 3099 3100 3099 3099 3099 3101 3102 3101 3101 3102 3102 3101 3102 3105 3107 3108 3109 3112 3115 3116 3118 3120 3122 3123 3126 3125 3121 3123 3124 3122 3120 3118 3119 3124 3128 3127 3122 3117 3120 3124 3127 3130 3132 3134 3138 3140 3143 3145 3146 3148 3151 3153 3155
3105 3104 3102 3101 3099 3099 3098 3097 3096 3096 3095 3095 3096 3097 3099 3099 3095 3095 3098 3097 3096 3096 3096 3096 3097 3097 3097 3098 3097 3096 3097 3096 3095 3096 3097 3098 3100 3100 3099 3098 3098 3100 3101 3101 3101 3099 3098 3097 3099 3102 3103 3104 3106 3109 3112 3115 3116 3117 3120 3122 3121 3117 3116 3117 3116 3114 3115 3116 3119 3123 3121 3115 3115 3117 3119 3124 3127 3129 3132 3134 3137 3140 3142 3144 3146 3148 3150 3152
3103 3101 3100 3098 3097 3096 3095 3095 3094 3094 3094 3094 3095 3097 3097 3096 3095 3096 3097 3096 3095 3096 3095 3095 3097 3098 3097 3097 3096 3096 3097 3096 3095 3096 3097 3098 3098 3099 3098 3097 3096 3098 3100 3100 3100 3098 3097 3095 3095 3097 3099 3101 3103 3106 3111 3114 3113 3114 3117 3118 3116 3115 3115 3114 3112 3111 3112 3112 3112 3114 3113 3112 3115 3116 3117 3121 3122 3125 3128 3130 3133 3136 3138 3141 3143 3145 3147 3149
3101 3099 3098 3096 3094 3093 3093 3092 3092 3092 3092 3093 3095 3096 3095 3094 3094 3095 3095 3095 3095 3096 3096 3095 3096 3097 3097 3097 3096 3095 3095 3095 3095 3095 3096 3096 3097 3097 3096 3095 3095 3096 3098 3099 3098 3098 3096 3095 3094 3095 3097 3100 3102 3104 3108 3109 3109 3110 3112 3111 3112 3115 3116 3114 3111 3111 3112 3110 3106 3107 3109 3112 3114 3114 3114 3117 3119 3122 3125 3126 3130 3133 3135 3138 3140 3142 3144 3146
3100 3098 3096 3094 3092 3092 3091 3090 3090 3090 3091 3092 3094 3094 3093 3093 3093 3093 3093 3093 3094 3094 3096 3096 3095 3096 3097 3096 3096 3095 3094 3094 3094 3095 3095 3095 3095 3095 3094 3094 3094 3095 3096 3097 3098 3098 3096 3093 3092 3094 3097 3098 3099 3102 3104 3106 3106 3105 3106 3108 3112 3115 3115 3113 3110 3109 3109 3106 3103 3104 3106 3108 3109 3108 3109 3112 3115 3118 3121 3123 3127 3130 3132 3135 3136 3139 3141 3143
3098 3096 3094 3093 3092 3091 3090 3089 3089 3089 3090 3092 3093 3093 3092 3092 3091 3091 3091 3092 3093 3094 3095 3096 3095 3095 3096 3096 3095 3094 3094 3094 3094 3094 3094 3094 3094 3093 3094 3094 3093 3093 3094 3095 3097 3097 3096 3094 3092 3094 3096 3096 3097 3100 3101 3103 3104 3103 3103 3105 3107 3107 3107 3109 3108 3104 3103 3101 3100 3101 3102 3103 3103 3103 3105 3108 3110 3113 3117 3120 3123 3126 3129 3131 3134 3136 3138 3141
3096 3094 3093 3093 3091 3090 3089 3088 3088 3089 3090 3093 3093 3092 3092 3091 3090 3090 3091 3092 3093 3094 3095 3095 3094 3094 3094 3094 3094 3093 3093 3093 3094 3094 3093 3093 3093 3092 3092 3093 3093 3092 3092 3093 3095 3096 3096 3096 3092 3092 3094 3095 3096 3097 3097 3098 3101 3103 3103 3102 3102 3101 3102 3104 3103 3101 3100 3097 3096 3097 3097 3097 3099 3101 3104 3105 3107 3110 3113 3116 3119 3123 3126 3128 3130 3133 3135 3138
3095 3093 3092 3091 3091 3089 3088 3088 3088 3089 3091 3092 3092 3091 3090 3090 3090 3090 3090 3091 3093 3093 3094 3094 3094 3094 3094 3093 3093 3093 3093 3093 3093 3093 3093 3092 3092 3091 3091 3091 3091 3091 3091 3091 3093 3094 3095 3096 3092 3091 3092 3092 3092 3092 3093 3094 3097 3099 3099 3098 3098 3098 3100 3100 3099 3099 3098 3095 3093 3093 3092 3093 3095 3098 3101 3103 3106 3108 3111 3114 3116 3119 3123 3126 3127 3130 3132 3135
3094 3093 3092 3090 3090 3089 3088 3088 3088 3089 3090 3090 3090 3089 3089 3090 3090 3090 3090 3091 3092 3092 3092 3093 3093 3094 3094 3093 3093 3093 3093 3093 3092 3092 3092 3091 3091 3091 3089 3089 3089 3089 3090 3092 3093 3094 3094 3094 3092 3090 3089 3088 3088 3089 3091 3091 3091 3092 3093 3094 3095 3096 3096 3095 3093 3094 3095 3093 3092 3092 3091 3091 3093 3095 3098 3101 3104 3106 3109 3112 3114 3117 3120 3123 3125 3127 3129 3132
3094 3093 3091 3089 3088 3088 3087 3088 3088 3088 3089 3089 3089 3088 3088 3089 3089 3089 3089 3090 3091 3091 3091 3092 3092 3093 3093 3093 3093 3092 3092 3092 3091 3091 3091 3090 3090 3090 3088 3087 3088 3088 3090 3091 3092 3092 3091 3091 3090 3088 3087 3086 3085 3086 3087 3086 3086 3086 3087 3089 3092 3092 3092 3091 3089 3090 3091 3090 3092 3093 3091 3090 3092 3094 3096 3099 3102 3104 3107 3109 3111 3114 3117 3120 3122 3125 3127 3128
3092 3091 3090 3088 3087 3087 3087 3088 3088 3087 3087 3087 3087 3087 3087 3088 3088 3089 3089 3089 3090 3091 3091 3091 3092 3092 3092 3091 3091 3091 3091 3090 3090 3089 3090 3090 3090 3089 3087 3086 3087 3088 3089 3091 3091 3090 3089 3090 3089 3087 3086 3085 3083 3083 3084 3084 3084 3083 3083 3085 3087 3088 3088 3088 3087 3087 3087 3085 3088 3091 3090 3090 3092 3093 3095 3098 3100 3103 3104 3106 3108 3111 3114 3117 3120 3122 3124 3125
3091 3090 3089 3088 3087 3086 3087 3089 3088 3087 3086 3086 3087 3087 3087 3087 3087 3087 3088 3088 3088 3089 3090 3090 3090 3090 3090 3090 3090 3090 3090 3089 3088 3088 3088 3089 3088 3087 3085 3085 3086 3087 3088 3088 3088 3088 3087 3088 3088 3085 3083 3081 3081 3081 3081 3082 3082 3081 3082 3084 3084 3084 3086 3085 3085 3087 3085 3083 3084 3086 3086 3088 3091 3092 3093 3096 3098 3101 3103 3104 3106 3108 3110 3114 3117 3119 3121 3122
3090 3089 3088 3087 3086 3086 3086 3087 3087 3087 3086 3087 3087 3087 3087 3086 3085 3085 3086 3086 3086 3087 3088 3088 3088 3088 3088 3088 3088 3088 3088 3087 3087 3087 3087 3087 3087 3086 3085 3084 3084 3086 3086 3085 3085 3086 3086 3087 3086 3084 3080 3075 3074 3075 3077 3079 3080 3079 3081 3081 3080 3082 3083 3083 3085 3085 3084 3084 3084 3083 3083 3086 3089 3090 3092 3094 3096 3099 3101 3103 3104 3105 3107 3109 3112 3114 3116 3119
3089 3088 3088 3086 3085 3085 3085 3085 3085 3086 3086 3087 3087 3087 3087 3087 3085 3084 3085 3085 3085 3085 3087 3087 3087 3087 3086 3085 3085 3085 3085 3085 3085 3085 3085 3085 3085 3085 3083 3082 3083 3084 3084 3083 3083 3084 3085 3085 3084 3083 3080 3074 3072 3074 3076 3077 3077 3078 3079 3079 3078 3079 3080 3082 3083 3081 3082 3085 3084 3083 3084 3086 3087 3089 3091 3093 3095 3097 3099 3102 3103 3104 3105 3107 3108 3110 3113 3116
3087 3087 3087 3086 3086 3086 3085 3084 3085 3085 3085 3086 3086 3086 3086 3086 3086 3084 3084 3084 3084 3084 3085 3085 3084 3085 3084 3083 3083 3083 3083 3083 3083 3083 3083 3083 3083 3083 3082 3081 3081 3081 3081 3082 3082 3083 3084 3083 3082 3082 3079 3075 3073 3075 3077 3077 3076 3076 3076 3076 3077 3077 3078 3079 3079 3079 3083 3084 3081 3083 3087 3086 3085 3088 3091 3092 3093 3095 3098 3100 3101 3102 3103 3104 3105 3107 3109 3112
3086 3086 3085 3085 3085 3086 3086 3085 3084 3084 3084 3084 3085 3086 3086 3086 3085 3084 3083 3083 3083 3083 3083 3083 3083 3083 3082 3082 3081 3081 3081 3082 3081 3081 3081 3081 3081 3082 3081 3080 3080 3080 3080 3081 3081 3081 3082 3081 3080 3080 3078 3075 3074 3074 3075 3075 3074 3073 3073 3073 3074 3076 3076 3076 3077 3079 3082 3081 3079 3082 3085 3084 3086 3088 3088 3088 3089 3091 3092 3094 3096 3097 3098 3100 3102 3104 3107 3110
3085 3084 3084 3084 3084 3084 3084 3083 3083 3084 3085 3084 3085 3085 3085 3085 3084 3083 3082 3082 3082 3082 3082 3082 3082 3082 3081 3080 3080 3080 3080 3080 3080 3079 3079 3079 3079 3079 3079 3079 3079 3079 3079 3079 3079 3079 3079 3078 3078 3078 3076 3074 3072 3071 3072 3073 3072 3071 3071 3071 3072 3073 3074 3075 3076 3077 3079 3078 3079 3081 3082 3082 3085 3085 3083 3084 3086 3087 3089 3091 3093 3094 3095 3097 3099 3102 3104 3107
3084 3084 3083 3083 3083 3083 3083 3083 3083 3084 3084 3084 3085 3084 3084 3085 3084 3082 3081 3081 3081 3081 3080 3081 3081 3080 3079 3079 3078 3078 3078 3078 3078 3077 3077 3077 3077 3077 3077 3076 3077 3077 3077 3077 3077 3078 3077 3076 3076 3076 3074 3072 3071 3070 3069 3070 3069 3068 3067 3068 3069 3070 3071 3072 3073 3074 3075 3076 3079 3081 3081 3082 3083 3081 3080 3082 3085 3086 3087 3089 3090 3091 3092 3094 3096 3098 3100 3103
3084 3083 3082 3082 3082 3082 3082 3083 3083 3084 3084 3084 3084 3084 3083 3084 3082 3081 3080 3080 3080 3080 3079 3079 3079 3078 3078 3077 3077 3077 3076 3075 3075 3074 3074 3074 3074 3074 3074 3073 3074 3075 3075 3075 3075 3075 3075 3074 3074 3075 3072 3069 3069 3068 3067 3067 3067 3064 3062 3064 3066 3067 3068 3069 3070 3071 3072 3074 3077 3079 3080 3082 3081 3077 3077 3080 3084 3086 3086 3087 3088 3088 3089 3091 3093 3095 3097 3099
3083 3083 3082 3082 3082 3082 3083 3083 3083 3084 3084 3083 3083 3082 3082 3082 3081 3080 3080 3079 3078 3078 3078 3078 3077 3077 3076 3076 3076 3075 3074 3073 3072 3071 3071 3070 3070 3070 3070 3070 3070 3070 3071 3072 3073 3073 3073 3072 3072 3073 3070 3067 3067 3066 3065 3066 3063 3058 3056 3059 3062 3063 3065 3066 3066 3067 3068 3071 3074 3076 3077 3077 3075 3073 3074 3078 3082 3084 3084 3085 3085 3086 3087 3088 3090 3092 3094 3096